STARLINK-36093

Last updated on Fri Dec 19 2025 00:02:09 GMT+0000 (Coordinated Universal Time)

1 67015U 25293N 25351.83335648 -.01013288 32975-3 -22115-2 0 9993 2 67015 69.9934 309.0096 0004142 265.7927 135.0426 15.98028769 2386
UTC large
Height (km)
Speed (km/s)
/
Latitude / Longitude
Inclination (degrees)
Orbital Period (minutes)
Azimuth
Elevation
Range (km)
Doppler Factor

Next 0 passes for location: London (51.5072 / 0.1276)

Sorry there are no passes over London.